Preview of NWS' New Version of Forecast
This preview is not operational and should not be used for support decisions.

Regional Weather Roundup (RWR)

Issued by State College, PA (CTP)

                            
000
ASUS41 KCTP 200910
RWRCTP

REGIONAL WEATHER ROUNDUP
NATIONAL WEATHER SERVICE STATE COLLEGE PA
400 AM EST WED FEB 20 2019

Note: "fair" indicates few or no clouds below 12,000 feet with no 
significant weather and/or obstructions to visibility.

* = STATION THAT DOES NOT REPORT PRECIPITATION /E.G. RAIN...SNOW...ETC/
    THUNDER OR FOG.

PAZ002>004-007>009-013>016-020>023-029>032-201000-
WESTERN PENNSYLVANIA
  
CITY           SKY/WX    TMP DP  RH WIND       PRES   REMARKS
ERIE           FAIR      25  15  66 NE8       30.42F                  
MEADVILLE      FAIR      24  12  60 E8        30.34F                  
FRANKLIN*      FAIR      22  14  71 E6        30.35F WCI  14          
NEW CASTLE     FAIR      27  14  58 SE5       30.36F                  
BEAVER COUNTY  NOT AVBL                                               
BUTLER*        FAIR      26  17  68 E7        30.36F                  
PITTSBURGH INT CLOUDY    27  15  61 E6        30.35F                  
PITTSBURGH     CLOUDY    28  16  60 E5        30.34F                  
INDIANA*       CLOUDY    28  12  50 E7        30.39F                  
LATROBE        FAIR      32  12  43 SE7G13    30.37F                  
WASHINGTON CO* CLOUDY    28  18  66 NE5       30.36F                  
$$

PAZ004>006-010>012-017>019-024>028-033>037-041-042-045-046-049>053-201000-
CENTRAL PENNSYLVANIA
  
CITY           SKY/WX    TMP DP  RH WIND       PRES   REMARKS
BRADFORD       FAIR      19   9  65 SE5       30.38F WCI  12          
DUBOIS         FAIR      22  10  60 E7        30.37F WCI  13          
CLEARFIELD     FAIR      22  12  65 NE9       30.42F WCI  12          
JOHNSTOWN      CLOUDY    25   9  50 SE10      30.32F WCI  15          
ALTOONA        MOCLDY    27   9  46 SE6       30.42F                  
STATE COLLEGE  FAIR      25  14  62 NE3       30.47F                  
WILLIAMSPORT   FAIR      25  13  60 E6        30.53F                  
SELINSGROVE    FAIR      27  17  66 CALM      30.55F                  
FT INDIANTOWN  CLOUDY    27  17  68 NE3       30.55F                  
CAPITAL CITY   FAIR      30  15  53 E5        30.55F                  
HARRISBURG     CLOUDY    30  14  51 E6        30.54F                  
YORK           FAIR      29  16  58 CALM      30.53F                  
$$

PAZ038>040-043-044-047-048-054-055-060>062-067>071-201000-
EASTERN PENNSYLVANIA
  
CITY           SKY/WX    TMP DP  RH WIND       PRES   REMARKS
SCRANTON       FAIR      21  11  65 CALM      30.52F                  
MOUNT POCONO   FAIR      16  11  80 W3        30.46F                  
ALLENTOWN      FAIR      27  15  61 NE5       30.58F                  
QUAKERTOWN*    SUNNY     25  18  74 CALM      30.57F                  
READING        FAIR      28  18  66 CALM      30.56F                  
LANCASTER      FAIR      30  21  69 E5        30.55F                  
COATESVILLE    FAIR      28  14  54 E3        30.56F                  
POTTSTOWN      FAIR      26  15  63 CALM      30.59F                  
BLUE BELL      FAIR      28  18  64 CALM      30.60F                  
DOYLESTOWN     FAIR      26  14  60 CALM      30.57F                  
WILLOW GROVE   NOT AVBL                                               
NORTH PHILA    FAIR      31  11  43 N5        30.61F                  
PHILADELPHIA   CLOUDY    31  12  45 E5        30.61F                  
$$